Weather History for Boulder City, NV

Change the Weather History Date:

Sunday, February 2, 2014

  Actual Average (KLAS) Record (KLAS)
Temperature  
Mean Temperature 40 °F 50 °F  
Max Temperature 50 °F 60 °F 77 °F (1995)
Min Temperature 30 °F 41 °F 22 °F (1950)
Degree Days  
Heating Degree Days 25 15  
Month to date heating degree days 30  
Since 1 July heating degree days 1382  
Cooling Degree Days 0 0  
Month to date cooling degree days 0  
Year to date cooling degree days 0  
Moisture  
Dew Point 13 °F    
Average Humidity 31    
Maximum Humidity 51    
Minimum Humidity 20    
Precipitation  
Precipitation 0.00 in 0.02 in 0.22 in (1988)
Month to date precipitation 0.04  
Year to date precipitation 0.58  
Snow  
Snow 0.00 in 0.00 in T in (1985)
Month to date snowfall 0.0  
Since 1 July snowfall 0.2  
Snow Depth -    
Sea Level Pressure  
Sea Level Pressure 30.03 in    
Wind  
Wind Speed 2 mph (East)    
Max Wind Speed 8 mph    
Max Gust Speed -    
Visibility 10 miles    
Events      
T = Trace of Precipitation, MM = Missing Value Source: NWS Daily Summary

Daily Weather History Graph

Daily Weather History Graph

Search for Another Location

Airport:

Trip Planner

Search our weather history database for the weather conditions in past years. The results will help you decide how hot, cold, wet, or windy it might be!

Date:

Astronomy

Feb. 02, 2014 Rise Set
Actual Time 6:39 AM PST 5:07 PM PST
Civil Twilight 6:12 AM PST 5:34 PM PST
Nautical Twilight 5:41 AM PST 6:05 PM PST
Astronomical Twilight 5:11 AM PST 6:35 PM PST
Moon 8:16 AM PST (2/2) 8:47 PM PST (2/2)
Length of Visible Light 11h 22m
Length of Day
10h 28m
Waxing Crescent, 12% of the Moon is Illuminated
Feb 2
Waxing Crescent
Feb 6
First Quarter
Feb 14
Full
Feb 22
Last Quarter
Mar 1
New

Hourly Weather History & Observations

Time (PST) Temp. Windchill Dew Point Humidity Pressure Visibility Wind Dir Wind Speed Gust Speed Precip Events Conditions
12:15 AM 41.0 °F - 10.4 °F 29% 30.09 in 10.0 mi Calm Calm - N/A   Clear
12:35 AM 41.0 °F - 10.4 °F 29% 30.09 in 10.0 mi Calm Calm - N/A   Clear
12:55 AM 42.8 °F - 10.4 °F 27% 30.09 in 10.0 mi Calm Calm - N/A   Clear
1:15 AM 42.8 °F 40.1 °F 12.2 °F 29% 30.09 in 10.0 mi NNE 4.6 mph - N/A   Clear
1:35 AM 39.2 °F 35.0 °F 12.2 °F 33% 30.09 in 10.0 mi NNW 5.8 mph - N/A   Clear
1:55 AM 37.4 °F - 12.2 °F 36% 30.09 in 10.0 mi Calm Calm - N/A   Clear
2:15 AM 37.4 °F - 12.2 °F 36% 30.09 in 10.0 mi Calm Calm - N/A   Clear
2:35 AM 35.6 °F 29.9 °F 12.2 °F 38% 30.10 in 10.0 mi WNW 6.9 mph - N/A   Clear
2:55 AM 39.2 °F - 14.0 °F 36% 30.09 in 10.0 mi Calm Calm - N/A   Clear
3:15 AM 41.0 °F - 12.2 °F 31% 30.09 in 10.0 mi Calm Calm - N/A   Clear
3:35 AM 35.6 °F - 12.2 °F 38% 30.09 in 10.0 mi Calm Calm - N/A   Clear
3:55 AM 33.8 °F - 12.2 °F 41% 30.10 in 10.0 mi Calm Calm - N/A   Clear
4:15 AM 33.8 °F - 12.2 °F 41% 30.10 in 10.0 mi Calm Calm - N/A   Clear
4:35 AM 35.6 °F - 12.2 °F 38% 30.11 in 10.0 mi Calm Calm - N/A   Clear
4:55 AM 35.6 °F - 12.2 °F 38% 30.10 in 10.0 mi Calm Calm - N/A   Clear
5:15 AM 32.0 °F - 14.0 °F 48% 30.10 in 10.0 mi Calm Calm - N/A   Clear
5:35 AM 32.0 °F - 14.0 °F 48% 30.09 in 10.0 mi Calm Calm - N/A   Clear
5:55 AM 30.2 °F - 14.0 °F 51% 30.09 in 10.0 mi Calm Calm - N/A   Clear
6:15 AM 30.2 °F - 14.0 °F 51% 30.09 in 10.0 mi Calm Calm - N/A   Clear
6:35 AM 33.8 °F - 12.2 °F 41% 30.10 in 10.0 mi Calm Calm - N/A   Clear
6:55 AM 32.0 °F - 14.0 °F 48% 30.10 in 10.0 mi Calm Calm - N/A   Clear
7:15 AM 32.0 °F - 12.2 °F 44% 30.10 in 10.0 mi Calm Calm - N/A   Clear
7:35 AM 32.0 °F - 12.2 °F 44% 30.11 in 10.0 mi Calm Calm - N/A   Clear
7:55 AM 32.0 °F - 12.2 °F 44% 30.11 in 10.0 mi Calm Calm - N/A   Clear
8:15 AM 35.6 °F - 14.0 °F 41% 30.11 in 10.0 mi Calm Calm - N/A   Clear
8:35 AM 35.6 °F - 12.2 °F 38% 30.12 in 10.0 mi Calm Calm - N/A   Clear
8:55 AM 35.6 °F - 12.2 °F 38% 30.12 in 10.0 mi Calm Calm - N/A   Clear
9:15 AM 37.4 °F - 12.2 °F 36% 30.13 in 10.0 mi Calm Calm - N/A   Clear
9:35 AM 39.2 °F - 14.0 °F 36% 30.11 in 10.0 mi Calm Calm - N/A   Clear
9:55 AM 41.0 °F - 14.0 °F 33% 30.11 in 10.0 mi Calm Calm - N/A   Clear
10:15 AM 42.8 °F - 14.0 °F 31% 30.10 in 10.0 mi Calm Calm - N/A   Clear
10:35 AM 44.6 °F - 14.0 °F 29% 30.10 in 10.0 mi Calm Calm - N/A   Clear
10:55 AM 44.6 °F - 14.0 °F 29% 30.09 in 10.0 mi Calm Calm - N/A   Partly Cloudy
11:15 AM 46.4 °F - 14.0 °F 27% 30.08 in 10.0 mi Calm Calm - N/A   Clear
11:35 AM 46.4 °F - 14.0 °F 27% 30.07 in 10.0 mi Calm Calm - N/A   Clear
11:55 AM 46.4 °F - 14.0 °F 27% 30.05 in 10.0 mi Calm Calm - N/A   Clear
12:15 PM 48.2 °F - 12.2 °F 24% 30.04 in 10.0 mi Calm Calm - N/A   Clear
12:35 PM 48.2 °F - 12.2 °F 24% 30.02 in 10.0 mi Calm Calm - N/A   Clear
12:55 PM 48.2 °F - 12.2 °F 24% 30.01 in 10.0 mi ENE 4.6 mph - N/A   Partly Cloudy
1:15 PM 48.2 °F - 12.2 °F 24% 30.00 in 10.0 mi East 5.8 mph - N/A   Clear
1:35 PM 50.0 °F - 12.2 °F 22% 29.99 in 10.0 mi Calm Calm - N/A   Clear
1:55 PM 50.0 °F - 12.2 °F 22% 29.98 in 10.0 mi Variable 6.9 mph - N/A   Clear
2:15 PM 50.0 °F - 12.2 °F 22% 29.97 in 10.0 mi Calm Calm - N/A   Clear
2:35 PM 50.0 °F - 12.2 °F 22% 29.97 in 10.0 mi Calm Calm - N/A   Clear
2:55 PM 50.0 °F - 10.4 °F 20% 29.96 in 10.0 mi East 3.5 mph - N/A   Clear
3:15 PM 50.0 °F - 12.2 °F 22% 29.96 in 10.0 mi East 6.9 mph - N/A   Clear
3:35 PM 50.0 °F - 12.2 °F 22% 29.96 in 10.0 mi ESE 5.8 mph - N/A   Clear
3:55 PM 50.0 °F - 12.2 °F 22% 29.95 in 10.0 mi ESE 6.9 mph - N/A   Partly Cloudy
4:15 PM 50.0 °F - 12.2 °F 22% 29.96 in 10.0 mi SE 8.1 mph - N/A   Scattered Clouds
4:35 PM 50.0 °F - 10.4 °F 20% 29.96 in 10.0 mi SE 5.8 mph - N/A   Scattered Clouds
4:55 PM 50.0 °F - 10.4 °F 20% 29.96 in 10.0 mi SE 6.9 mph - N/A   Partly Cloudy
5:15 PM 50.0 °F - 10.4 °F 20% 29.96 in 10.0 mi ESE 5.8 mph - N/A   Clear
5:35 PM 50.0 °F - 10.4 °F 20% 29.96 in 10.0 mi Calm Calm - N/A   Clear
5:55 PM 48.2 °F - 10.4 °F 22% 29.97 in 10.0 mi Calm Calm - N/A   Clear
6:15 PM 48.2 °F - 10.4 °F 22% 29.97 in 10.0 mi ESE 3.5 mph - N/A   Partly Cloudy
6:35 PM 48.2 °F - 10.4 °F 22% 29.97 in 10.0 mi ESE 4.6 mph - N/A   Mostly Cloudy
6:55 PM 48.2 °F - 10.4 °F 22% 29.96 in 10.0 mi ESE 5.8 mph - N/A   Mostly Cloudy
7:15 PM 48.2 °F - 10.4 °F 22% 29.96 in 10.0 mi ESE 5.8 mph - N/A   Mostly Cloudy
7:35 PM 48.2 °F - 10.4 °F 22% 29.95 in 10.0 mi ESE 5.8 mph - N/A   Mostly Cloudy
7:55 PM 48.2 °F - 10.4 °F 22% 29.95 in 10.0 mi SE 5.8 mph - N/A   Overcast
8:15 PM 48.2 °F - 12.2 °F 24% 29.95 in 10.0 mi East 5.8 mph - N/A   Mostly Cloudy
8:35 PM 48.2 °F - 12.2 °F 24% 29.95 in 10.0 mi Calm Calm - N/A   Mostly Cloudy
8:55 PM 46.4 °F - 12.2 °F 25% 29.94 in 10.0 mi Calm Calm - N/A   Overcast
9:15 PM 46.4 °F 44.3 °F 14.0 °F 27% 29.95 in 10.0 mi ENE 4.6 mph - N/A   Mostly Cloudy
9:35 PM 46.4 °F 44.3 °F 14.0 °F 27% 29.95 in 10.0 mi ENE 4.6 mph - N/A   Clear
9:55 PM 46.4 °F 44.3 °F 14.0 °F 27% 29.94 in 10.0 mi ENE 4.6 mph - N/A   Clear
10:15 PM 44.6 °F 40.7 °F 15.8 °F 31% 29.94 in 10.0 mi NE 6.9 mph - N/A   Clear
10:35 PM 44.6 °F 40.7 °F 19.4 °F 37% 29.94 in - NNE 6.9 mph - N/A   Clear
10:55 PM 44.6 °F 40.7 °F 19.4 °F 37% 29.94 in 10.0 mi NNE 6.9 mph - N/A   Partly Cloudy
11:15 PM 44.6 °F 42.2 °F 19.4 °F 37% 29.94 in 10.0 mi NNE 4.6 mph - N/A   Mostly Cloudy
11:35 PM 44.6 °F 43.1 °F 17.6 °F 34% 29.93 in 10.0 mi NE 3.5 mph - N/A   Mostly Cloudy
11:55 PM 44.6 °F 41.4 °F 19.4 °F 37% 29.93 in 10.0 mi NE 5.8 mph - N/A   Partly Cloudy